BCS115 EDDP-EDDK

Flight info

Callsign BCS115
Flight time 0h 42m
Altitude 32000
Route ORTAG5S ORTAG Q230 KUMER DCT TOLTA DCT PODER Z189 RUNER T858 KOPAG
Aircraft B752/M-SDE2E3FGHIJ3J4J7RWXY/LB1

Departure

Time 2026-04-26 12:16
Airport Leipzig/Halle Airport (EDDP)

Arrival

Time 2026-04-26 12:59
Airport Cologne Bonn Airport (EDDK)
Time Latitude Longitude Altitude Speed Heading
2026-04-26 11:51 51.40805 12.24847 480 ft 0 kts 85°
2026-04-26 12:01 51.40805 12.24845 480 ft 1 kts 85°
2026-04-26 12:02 51.40804 12.24822 480 ft 2 kts 86°
2026-04-26 12:02 51.40803 12.24806 480 ft 2 kts 85°
2026-04-26 12:02 51.40802 12.24775 480 ft 1 kts 85°
2026-04-26 12:02 51.40801 12.24754 480 ft 3 kts 82°
2026-04-26 12:03 51.40792 12.24718 480 ft 3 kts 47°
2026-04-26 12:03 51.40780 12.24712 480 ft 2 kts 343°
2026-04-26 12:03 51.40770 12.24719 480 ft 0 kts 330°
2026-04-26 12:03 51.40765 12.24721 480 ft 0 kts 353°
2026-04-26 12:04 51.40763 12.24722 480 ft 0 kts 355°
2026-04-26 12:08 51.40813 12.24725 480 ft 13 kts
2026-04-26 12:08 51.40915 12.24717 480 ft 16 kts 356°
2026-04-26 12:09 51.41030 12.24703 480 ft 16 kts 355°
2026-04-26 12:09 51.41099 12.24764 480 ft 11 kts 82°
2026-04-26 12:09 51.41102 12.24854 480 ft 7 kts 83°
2026-04-26 12:09 51.41109 12.24931 480 ft 7 kts 82°
2026-04-26 12:10 51.41114 12.25036 480 ft 11 kts 85°
2026-04-26 12:10 51.41121 12.25183 480 ft 14 kts 87°
2026-04-26 12:10 51.41128 12.25363 480 ft 18 kts 85°
2026-04-26 12:10 51.41140 12.25557 480 ft 10 kts 80°
2026-04-26 12:11 51.41163 12.25611 480 ft 5 kts 27°
2026-04-26 12:11 51.41189 12.25622 480 ft 4 kts
2026-04-26 12:11 51.41223 12.25624 480 ft 5 kts 359°
2026-04-26 12:11 51.41262 12.25623 480 ft 5 kts 358°
2026-04-26 12:12 51.41270 12.25622 480 ft 0 kts 358°
2026-04-26 12:14 51.41275 12.25622 480 ft 4 kts 358°
2026-04-26 12:15 51.41353 12.25611 480 ft 17 kts 354°
2026-04-26 12:15 51.41407 12.25556 480 ft 6 kts 242°
2026-04-26 12:15 51.41402 12.25542 480 ft 0 kts 251°
2026-04-26 12:15 51.41400 12.25515 480 ft 4 kts 265°
2026-04-26 12:16 51.41384 12.25150 481 ft 71 kts 266°
2026-04-26 12:16 51.41323 12.23912 482 ft 149 kts 265°
2026-04-26 12:16 51.41236 12.22036 932 ft 183 kts 268°
2026-04-26 12:16 51.41170 12.19960 1920 ft 195 kts 270°
2026-04-26 12:17 51.41128 12.17773 2865 ft 212 kts 268°
2026-04-26 12:17 51.40985 12.15311 3754 ft 236 kts 266°
2026-04-26 12:17 51.40833 12.12608 4633 ft 256 kts 267°
2026-04-26 12:17 51.40688 12.09933 5397 ft 229 kts 268°
2026-04-26 12:18 51.40560 12.07462 6204 ft 220 kts 268°
2026-04-26 12:18 51.40439 12.05092 7010 ft 209 kts 269°
2026-04-26 12:18 51.40328 12.02896 7782 ft 194 kts 270°
2026-04-26 12:18 51.40223 12.00855 8534 ft 175 kts 271°
2026-04-26 12:19 51.40129 11.98858 9073 ft 192 kts 271°
2026-04-26 12:19 51.40025 11.96583 9470 ft 224 kts 270°
2026-04-26 12:19 51.39894 11.93876 9800 ft 260 kts 270°
2026-04-26 12:19 51.39744 11.90880 10070 ft 276 kts 269°
2026-04-26 12:20 51.39587 11.87811 10330 ft 282 kts 270°
2026-04-26 12:20 51.39427 11.84659 10577 ft 283 kts 269°
2026-04-26 12:20 51.39268 11.81538 10833 ft 283 kts 270°
2026-04-26 12:20 51.39108 11.78383 11082 ft 284 kts 270°
2026-04-26 12:21 51.38948 11.75256 11352 ft 285 kts 270°
2026-04-26 12:21 51.38970 11.72045 11813 ft 298 kts 284°
2026-04-26 12:21 51.39458 11.68750 12277 ft 310 kts 287°
2026-04-26 12:21 51.39965 11.65380 12699 ft 308 kts 287°
2026-04-26 12:22 51.40467 11.62074 13108 ft 308 kts 287°
2026-04-26 12:22 51.40978 11.58737 13530 ft 311 kts 287°
2026-04-26 12:22 51.41493 11.55377 13945 ft 312 kts 287°
2026-04-26 12:22 51.42016 11.51968 14368 ft 315 kts 287°
2026-04-26 12:23 51.42561 11.48432 14755 ft 339 kts 287°
2026-04-26 12:23 51.43111 11.44823 16082 ft 337 kts 287°
2026-04-26 12:23 51.43675 11.41141 16998 ft 347 kts 286°
2026-04-26 12:23 51.44241 11.37424 18082 ft 350 kts 286°
2026-04-26 12:24 51.44818 11.33630 19056 ft 355 kts 285°
2026-04-26 12:24 51.45399 11.29799 20019 ft 360 kts 285°
2026-04-26 12:24 51.45989 11.25906 20929 ft 366 kts 285°
2026-04-26 12:25 51.47198 11.17887 22709 ft 376 kts 284°
2026-04-26 12:25 51.47809 11.13823 23571 ft 380 kts 284°
2026-04-26 12:25 51.48424 11.09714 24425 ft 385 kts 284°
2026-04-26 12:25 51.48986 11.05512 25291 ft 388 kts 281°
2026-04-26 12:26 51.49466 11.01267 26088 ft 392 kts 281°
2026-04-26 12:26 51.49962 10.96941 26902 ft 396 kts 281°
2026-04-26 12:26 51.50460 10.92596 27645 ft 401 kts 281°
2026-04-26 12:26 51.50962 10.88192 28396 ft 404 kts 280°
2026-04-26 12:27 51.51471 10.83723 29116 ft 409 kts 280°
2026-04-26 12:27 51.51979 10.79248 29804 ft 412 kts 280°
2026-04-26 12:27 51.52496 10.74680 30136 ft 425 kts 280°
2026-04-26 12:27 51.53034 10.69908 30365 ft 438 kts 280°
2026-04-26 12:28 51.53572 10.65116 31060 ft 440 kts 280°
2026-04-26 12:28 51.54189 10.60267 31709 ft 442 kts 282°
2026-04-26 12:28 51.54857 10.55494 32278 ft 437 kts 282°
2026-04-26 12:28 51.55512 10.50738 32264 ft 435 kts 282°
2026-04-26 12:29 51.56818 10.41198 32274 ft 437 kts 282°
2026-04-26 12:30 51.58776 10.26776 32286 ft 449 kts 281°
2026-04-26 12:30 51.60107 10.16892 32288 ft 458 kts 281°
2026-04-26 12:31 51.62129 10.01742 32283 ft 465 kts 281°
2026-04-26 12:31 51.63473 9.91577 32281 ft 464 kts 282°
2026-04-26 12:32 51.64802 9.81457 32281 ft 465 kts 282°
2026-04-26 12:33 51.66787 9.66206 32285 ft 464 kts 282°
2026-04-26 12:33 51.68077 9.56019 32284 ft 465 kts 279°
2026-04-26 12:34 51.68078 9.45680 32301 ft 465 kts 264°
2026-04-26 12:34 51.67254 9.35379 32294 ft 466 kts 263°
2026-04-26 12:35 51.66386 9.25178 32299 ft 466 kts 263°
2026-04-26 12:35 51.65485 9.14935 32301 ft 467 kts 262°
2026-04-26 12:36 51.64558 9.04625 32299 ft 467 kts 262°
2026-04-26 12:36 51.63619 8.94324 32298 ft 467 kts 262°
2026-04-26 12:37 51.62646 8.83974 32295 ft 468 kts 260°
2026-04-26 12:37 51.60441 8.74163 32307 ft 472 kts 242°
2026-04-26 12:38 51.56356 8.65902 32294 ft 478 kts 224°
2026-04-26 12:38 51.53740 8.62607 32008 ft 483 kts 215°
2026-04-26 12:38 51.50890 8.59834 31679 ft 476 kts 212°
2026-04-26 12:38 51.48087 8.57204 31278 ft 465 kts 212°
2026-04-26 12:39 51.45273 8.54603 30855 ft 458 kts 212°
2026-04-26 12:39 51.42538 8.52107 30343 ft 453 kts 212°
2026-04-26 12:39 51.39843 8.49670 29825 ft 447 kts 212°
2026-04-26 12:39 51.37147 8.47247 29298 ft 441 kts 212°
2026-04-26 12:40 51.34484 8.44863 28574 ft 440 kts 212°
2026-04-26 12:40 51.31851 8.42500 27857 ft 439 kts 213°
2026-04-26 12:40 51.29369 8.39710 27131 ft 436 kts 223°
2026-04-26 12:40 51.27249 8.36320 26417 ft 433 kts 232°
2026-04-26 12:41 51.25534 8.32453 25712 ft 430 kts 239°
2026-04-26 12:41 51.24002 8.28416 24996 ft 429 kts 240°
2026-04-26 12:41 51.22474 8.24355 24278 ft 428 kts 240°
2026-04-26 12:41 51.20969 8.20306 23522 ft 424 kts 241°
2026-04-26 12:42 51.19522 8.16392 22770 ft 406 kts 241°
2026-04-26 12:42 51.18122 8.12593 22059 ft 389 kts 241°
2026-04-26 12:42 51.16795 8.08987 21368 ft 375 kts 241°
2026-04-26 12:42 51.15509 8.05486 20690 ft 362 kts 241°
2026-04-26 12:43 51.14259 8.02084 19995 ft 351 kts 241°
2026-04-26 12:43 51.13039 7.98768 19295 ft 344 kts 241°
2026-04-26 12:43 51.11844 7.95519 18608 ft 338 kts 241°
2026-04-26 12:43 51.10681 7.92370 17932 ft 330 kts 241°
2026-04-26 12:44 51.09534 7.89262 17240 ft 324 kts 241°
2026-04-26 12:44 51.08403 7.86201 16540 ft 318 kts 242°
2026-04-26 12:44 51.07254 7.83242 15855 ft 314 kts 233°
2026-04-26 12:44 51.05705 7.80874 15221 ft 311 kts 214°
2026-04-26 12:45 51.03801 7.79274 14516 ft 311 kts 207°
2026-04-26 12:45 51.01853 7.77822 13742 ft 311 kts 207°
2026-04-26 12:45 50.99898 7.76386 12982 ft 311 kts 207°
2026-04-26 12:45 50.97957 7.74986 12331 ft 306 kts 207°
2026-04-26 12:46 50.96037 7.73612 11810 ft 298 kts 207°
2026-04-26 12:46 50.94177 7.72288 11297 ft 291 kts 207°
2026-04-26 12:46 50.92365 7.71002 10790 ft 285 kts 207°
2026-04-26 12:46 50.90566 7.69724 10280 ft 280 kts 207°
2026-04-26 12:47 50.88834 7.68466 9772 ft 276 kts 207°
2026-04-26 12:47 50.87119 7.67241 9287 ft 271 kts 207°
2026-04-26 12:47 50.85435 7.66031 8828 ft 266 kts 207°
2026-04-26 12:47 50.83778 7.64835 8373 ft 261 kts 207°
2026-04-26 12:48 50.82133 7.63641 7907 ft 257 kts 207°
2026-04-26 12:48 50.80533 7.62470 7473 ft 253 kts 207°
2026-04-26 12:48 50.78962 7.61315 7087 ft 247 kts 207°
2026-04-26 12:48 50.77422 7.60177 6732 ft 241 kts 207°
2026-04-26 12:49 50.75927 7.59069 6387 ft 234 kts 207°
2026-04-26 12:49 50.74466 7.57981 6047 ft 228 kts 207°
2026-04-26 12:49 50.73071 7.56934 5717 ft 223 kts 207°
2026-04-26 12:49 50.71670 7.55878 5371 ft 218 kts 207°
2026-04-26 12:50 50.70326 7.54857 5036 ft 214 kts 207°
2026-04-26 12:50 50.68999 7.53844 4740 ft 207 kts 207°
2026-04-26 12:50 50.67715 7.52858 4399 ft 204 kts 207°
2026-04-26 12:50 50.66465 7.51889 4066 ft 201 kts 207°
2026-04-26 12:51 50.65228 7.50894 3726 ft 198 kts 216°
2026-04-26 12:51 50.64391 7.49269 3432 ft 188 kts 258°
2026-04-26 12:51 50.64417 7.47316 3203 ft 173 kts 289°
2026-04-26 12:51 50.64753 7.45556 3012 ft 160 kts 289°
2026-04-26 12:52 50.65290 7.44246 2920 ft 130 kts 334°
2026-04-26 12:52 50.66101 7.43587 3021 ft 139 kts 328°
2026-04-26 12:52 50.66877 7.42656 3447 ft 159 kts 324°
2026-04-26 12:52 50.67841 7.41477 3183 ft 177 kts 324°
2026-04-26 12:53 50.68772 7.40317 2859 ft 170 kts 325°
2026-04-26 12:53 50.69644 7.39257 2795 ft 147 kts 325°
2026-04-26 12:53 50.70471 7.38250 2861 ft 151 kts 326°
2026-04-26 12:53 50.71271 7.37311 2764 ft 142 kts 325°
2026-04-26 12:54 50.72078 7.36350 2755 ft 146 kts 326°
2026-04-26 12:55 50.74972 7.31735 3017 ft 141 kts 315°
2026-04-26 12:55 50.75632 7.30602 2987 ft 140 kts 315°
2026-04-26 12:55 50.76326 7.29416 3051 ft 157 kts 315°
2026-04-26 12:55 50.77102 7.28116 3028 ft 166 kts 315°
2026-04-26 12:56 50.77894 7.26858 2909 ft 154 kts 319°
2026-04-26 12:56 50.78682 7.25788 2626 ft 150 kts 325°
2026-04-26 12:56 50.79546 7.24793 2357 ft 152 kts 328°
2026-04-26 12:56 50.80398 7.23858 2213 ft 147 kts 327°
2026-04-26 12:57 50.81189 7.22873 1972 ft 145 kts 320°
2026-04-26 12:57 50.81938 7.21732 1667 ft 158 kts 317°
2026-04-26 12:57 50.82746 7.20500 1347 ft 162 kts 319°
2026-04-26 12:58 50.84333 7.18265 689 ft 147 kts 319°
2026-04-26 12:58 50.85100 7.17168 464 ft 149 kts 318°
2026-04-26 12:58 50.85842 7.16098 308 ft 137 kts 319°
2026-04-26 12:58 50.86430 7.15247 284 ft 78 kts 316°
2026-04-26 12:59 50.86714 7.14830 274 ft 36 kts 318°
2026-04-26 12:59 50.86839 7.14594 270 ft 20 kts 297°
2026-04-26 12:59 50.86877 7.14404 264 ft 19 kts 281°
2026-04-26 12:59 50.86895 7.14243 256 ft 9 kts 279°
2026-04-26 13:00 50.86906 7.14150 254 ft 10 kts 279°
2026-04-26 13:00 50.86917 7.14046 253 ft 7 kts 281°
2026-04-26 13:00 50.86938 7.13919 251 ft 11 kts 299°
2026-04-26 13:00 50.86993 7.13825 248 ft 11 kts 317°
2026-04-26 13:01 50.87040 7.13756 247 ft 9 kts 318°
2026-04-26 13:01 50.87092 7.13682 246 ft 11 kts 318°
2026-04-26 13:01 50.87127 7.13630 245 ft 6 kts 317°
2026-04-26 13:01 50.87177 7.13559 243 ft 13 kts 317°
2026-04-26 13:02 50.87244 7.13460 241 ft 12 kts 316°
2026-04-26 13:02 50.87294 7.13390 241 ft 9 kts 318°
2026-04-26 13:02 50.87329 7.13336 241 ft 2 kts 296°
2026-04-26 13:02 50.87324 7.13306 241 ft 3 kts 240°
2026-04-26 13:03 50.87299 7.13252 241 ft 8 kts 227°
2026-04-26 13:03 50.87271 7.13202 241 ft 2 kts 227°